星链-4687 (STARLINK-4687 )

导读

STARLINK-4687是美国太空探索技术公司SpaceX星链星座的一员,于2022年9月11日发射升空,属于星链低轨卫星互联网项目。卫星运行在近地轨道,主要为全球提供高速低延迟互联网服务,尤其覆盖偏远地区,同时也具备军事通信应用潜力,不过该卫星的部署也引发了太空拥堵和天文观测干扰等争议。

Basic Information
目录编号:
53784
目录名称:
STARLINK-4687
国际标识:
2022-111M
轨道中心:
EARTH
卫星名称:
星链-4687
卫星全名:
星链-4687 (STARLINK-4687 )
卫星状态:
在轨 (已飞行1462 天)
发射日期:
2022-09-11 UTC
国别 :
美国 (US)
星等 :
--
This satellite is enrolled in the Space Conjunction Data Service (SCDS) and the current flight risk assessment level is: No High Risk
Orbit Information
数据来源 国际轨道数据 AOE轨道数据
星历时间 2026-09-12T08:26:30+0800
10小时前
查看轨道信息
2026-09-10T23:00:00+0800
1天前
查看轨道信息
半长轴 6848.891km 6848.871km
偏心率 0.0001254 0.0001415
轨道倾角 53.159° 53.159°
近地点辐角 77.932° 71.828°
升交点赤经 145.267° 151.757°
平近点角 282.182° 160.653°
近地点 469.895km 469.764km
远地点 471.613km 471.704km
周期 94.013分钟 94.013分钟
每日圈数 15.316955 15.317021
Detailed Information
固有亮度:
5
最大亮度:
2.5
卫星平台:
Starlink v1.5
覆盖范围:
全球
运营商:
太空探索技术公司
运营商所在国:
美国
制造商(研发单位):
太空探索技术公司
制造商所在国:
美国
使用方式:
暂无
Satellite Introduction
星链(Starlink)计划是由太空探索技术公司(SpaceX)提出的一个巨型低轨卫星互联网星座项目,计划在2019年至2024年间在太空搭建由约1.2万颗卫星组成的“星链”网络,其中1584颗将部署在地球上空550千米处的近地轨道,并从2020年开始工作。该卫星仍在工作。
2D Orbit Map
3D Orbit Map
Orbit Altitude Analysis Chart
Orbit Inclination Analysis Chart
Orbit Comprehensive Analysis Chart
View Comprehensive Chart
Miss Distance Evolution Trend with All Objects
Collision Probability Evolution Trend with All Objects